Temp
59 59 58 56 55 54 55 56 57 57 56 54 53 50 49 47 46 46 45 43 43 42
58 56 55 55 56 55 57 57 56 55 53 51 52 50 47 47 45 45 43 42 41 40
56 57 57 56 56 56 55 55 53 51 50 49 48 47 47 45 43 43 40 41 40 38
55 56 56 55 54 53 52 51 50 50 48 47 48 47 44 43 42 42 40 40 40 40
54 52 51 50 50 51 51 50 48 47 47 46 45 43 43 43 42 41 40 40 39 39
50 51 47 46 46 46 45 45 45 46 45 44 44 43 42 42 41 40 40 39 38 39
46 45 44 44 44 44 44 43 43 43 44 44 43 43 42 42 40 39 39 40 39 38
43 43 43 43 42 42 42 42 42 42 42 41 42 45 41 40 39 38 38 39 39 39
43 42 41 41 40 40 40 39 39 39 39 39 45 51 53 49 40 40 39 38 39 38
42 41 40 40 40 38 37 37 37 37 37 37 37 50 52 52 42 39 37 36 36 37
41 40 39 39 38 37 36 36 35 36 36 35 38 48 50 51 38 36 35 36 36 35
40 39 38 37 36 35 35 34 34 35 34 33 34 45 48 46 37 36 35 36 36 35
39 38 37 36 35 34 33 35 35 34 32 38 32 41 45 45 37 33 34 35 36 45
37 36 35 34 33 32 32 32 30 31 31 31 33 33 44 46 40 39 39 40 39 36
MSLP
1015.75 1016.11 1016.62 1016.88 1018.16 1018.66 1018.93 1018.91 1018.89 1019.35 1019.84 1020.03 1020.26 1021.02 1021.60 1022.40 1022.68 1023.21 1023.72 1024.00 1024.29 1024.83
1015.69 1016.26 1016.92 1017.15 1017.84 1018.04 1018.15 1018.53 1018.96 1019.60 1019.97 1020.15 1020.42 1021.09 1021.63 1022.52 1022.82 1023.28 1023.82 1024.04 1024.43 1024.78
1016.01 1016.52 1017.12 1017.57 1018.07 1018.18 1018.36 1018.66 1019.22 1019.76 1020.15 1020.56 1021.00 1021.47 1022.03 1022.76 1023.04 1023.49 1023.87 1024.15 1024.62 1024.83
1016.53 1017.03 1017.34 1017.89 1018.30 1018.49 1018.65 1019.01 1019.54 1020.05 1020.57 1021.11 1021.51 1022.12 1022.73 1022.97 1023.21 1023.66 1024.04 1024.28 1024.43 1024.56
1017.10 1017.56 1018.01 1018.87 1019.14 1019.48 1019.78 1020.00 1020.39 1020.61 1021.09 1021.65 1022.21 1022.64 1022.80 1023.10 1023.43 1023.61 1024.05 1024.12 1024.34 1024.58
1018.41 1018.70 1019.27 1019.86 1020.28 1020.50 1020.48 1020.73 1021.06 1021.37 1021.75 1022.14 1022.45 1022.73 1022.92 1023.09 1023.28 1023.55 1023.72 1023.87 1024.15 1024.20
1019.81 1020.01 1020.40 1020.72 1021.04 1021.22 1021.24 1021.45 1021.56 1021.81 1022.14 1022.48 1022.63 1022.76 1022.97 1022.95 1023.11 1023.27 1023.42 1023.56 1023.70 1023.73
1020.46 1020.67 1020.95 1021.33 1021.57 1021.78 1021.70 1021.91 1022.16 1022.41 1022.74 1022.92 1022.86 1022.61 1022.37 1022.44 1022.77 1023.03 1023.17 1023.21 1023.24 1023.24
1021.35 1021.65 1021.93 1022.12 1022.19 1022.18 1022.52 1022.66 1022.91 1023.16 1023.19 1023.01 1022.71 1022.17 1021.84 1021.90 1022.44 1022.65 1022.85 1022.93 1022.85 1022.79
1021.96 1022.17 1022.33 1022.43 1022.54 1022.80 1023.02 1023.00 1023.15 1023.25 1023.28 1023.10 1022.75 1022.22 1021.90 1021.76 1022.10 1022.50 1022.71 1022.72 1022.76 1022.62
1022.09 1022.44 1022.64 1022.76 1023.02 1023.31 1023.48 1023.68 1023.65 1023.50 1023.33 1023.16 1022.84 1022.39 1022.05 1021.90 1022.34 1022.55 1022.64 1022.62 1022.43 1022.28
1022.84 1023.12 1023.29 1023.58 1023.73 1023.80 1023.85 1023.85 1023.75 1023.64 1023.52 1023.44 1023.19 1022.81 1022.45 1022.23 1022.31 1022.27 1022.14 1021.98 1021.83 1021.60
1023.34 1023.52 1023.73 1023.92 1024.06 1024.09 1024.00 1023.92 1023.83 1023.72 1023.63 1023.47 1023.36 1023.08 1022.51 1022.17 1022.04 1021.93 1021.73 1021.35 1021.08 1020.88
1023.76 1023.96 1024.06 1024.08 1024.08 1024.09 1024.11 1024.05 1023.99 1023.90 1023.73 1023.56 1023.26 1022.84 1022.25 1021.71 1021.41 1021.20 1020.88 1020.50 1020.39 1020.23
Wind_Speed
14 9 6 7 6 8 7 4 4 2 4 6 6 6 6 4 4 5 4 6 4 3
10 5 6 6 5 5 4 5 5 6 5 6 7 7 7 4 5 5 4 5 5 3
7 5 4 5 6 6 5 5 7 6 6 7 6 6 6 4 5 6 3 3 4 3
6 6 6 5 4 4 6 6 7 7 7 7 6 5 5 5 6 6 5 3 4 3
9 8 9 7 7 7 8 7 7 7 7 6 6 5 5 6 5 6 4 4 3 3
10 11 10 8 7 7 7 7 7 6 6 5 4 4 3 4 4 4 4 4 5 5
9 8 7 7 7 7 6 7 6 6 5 4 2 2 3 2 2 2 3 5 6 6
7 7 7 8 7 6 7 7 6 6 5 3 1 1 2 2 3 4 5 5 5 6
7 7 6 6 6 7 6 6 5 5 3 3 3 6 7 3 4 5 5 6 6 6
6 6 6 6 6 6 5 4 5 5 4 4 4 8 10 12 3 3 4 5 5 5
7 6 6 6 6 4 3 3 2 3 3 3 4 8 9 10 3 3 5 6 6 6
4 4 4 4 3 2 2 2 2 2 3 3 4 9 11 10 5 5 7 6 6 7
4 4 4 2 1 1 1 2 2 3 2 4 4 9 13 13 5 5 5 6 7 15
5 5 3 2 2 2 2 2 3 4 4 5 5 7 15 18 6 6 6 5 4 4
Wind_Direction
146 157 202 184 179 189 198 189 144 153 163 146 131 129 117 114 107 114 121 129 125 136
164 139 165 165 181 188 164 147 161 162 144 121 118 120 121 122 120 117 129 129 130 123
141 153 151 161 179 161 143 127 129 124 105 101 106 111 110 116 127 127 121 118 142 148
108 118 99 87 87 93 97 104 107 111 107 105 102 109 122 132 135 137 143 151 160 163
75 72 76 78 75 79 89 83 96 92 92 106 125 139 144 155 153 150 167 186 172 213
73 76 73 69 69 70 79 78 78 96 108 119 137 150 156 164 173 189 206 197 205 231
78 83 83 83 78 79 81 86 79 74 79 79 95 135 183 192 231 255 243 236 231 233
73 73 73 69 67 68 63 61 59 64 56 51 43 264 237 237 235 241 262 263 253 242
79 79 80 80 75 70 69 67 69 65 64 36 354 338 325 298 229 252 250 259 264 259
99 91 82 82 81 72 61 54 39 25 14 350 328 327 321 314 322 281 269 258 261 272
68 70 61 59 55 51 42 32 353 337 335 326 307 316 313 314 17 315 281 264 257 253
86 91 82 81 66 30 10 336 316 307 318 316 318 328 324 321 306 287 278 268 257 246
74 79 79 72 46 5 359 323 338 338 349 308 320 317 314 312 279 275 272 266 257 265
65 82 66 54 33 11 1 12 359 339 321 305 296 292 304 307 289 276 276 262 259 241